Location: Bambrugge
(50.9212°N, 3.9299°E)
Time: 22:02:53
(UTC+00:00)

SL-16 R/B - Pass Details

Date: 10 August 2024
Orbit: 842 x 845 km, 71.0° (Epoch: 10 September)

Event Time Altitude Azimuth Distance (km) Brightness Sun altitude
Exits shadow 02:38:44 - 275° (W) 3,017 4.7 -14.1°
Reaches altitude 10° 02:40:48 10° 288° (WNW) 2,471 4.4 -13.8°
Maximum altitude 02:44:28 17° 329° (NNW) 2,003 4.3 -13.5°
Drops below altitude 10° 02:48:10 10° 10° (N) 2,478 5.5 -13.0°
Sets 02:51:33 0° 30° (NNE) 3,416 7.0 -12.7°
